• In Germany
  • List of Countries
  • For 7 days
  • Water Temperature
  • Satellite Maps
  • Weather Map
  • Weather Widgets
  • user-avatar
    Login

    Hourly Weather Ouahigouya

    Today, 24 October, Wednesday

    Time Temperature Precipitation Wind Pressure Humidity
    00:00 +34°C° 0 mm 2 mps 729 mmHg 14%
    01:00 +32°C° 0 mm 2 mps 728 mmHg 15%
    02:00 +33°C° 0 mm 3 mps 728 mmHg 17%
    03:00 +31°C° 0 mm 3 mps 728 mmHg 18%
    04:00 +30°C° 0 mm 3 mps 728 mmHg 20%
    05:00 +30°C° 0 mm 3 mps 728 mmHg 22%
    06:00 +29°C° 0 mm 3 mps 728 mmHg 24%
    07:00 +33°C° 0 mm 3 mps 729 mmHg 22%
    08:00 +35°C° 0 mm 3 mps 729 mmHg 21%
    09:00 +37°C° 0 mm 3 mps 730 mmHg 20%
    10:00 +38°C° 0 mm 2 mps 729 mmHg 18%
    11:00 +40°C° 0 mm 2 mps 729 mmHg 16%
    12:00 +41°C° 0 mm 1 mps 729 mmHg 14%
    13:00 +41°C° 0 mm 2 mps 728 mmHg 13%
    14:00 +42°C° 0 mm 2 mps 727 mmHg 12%
    15:00 +43°C° 0 mm 2 mps 727 mmHg 11%
    16:00 +41°C° 0 mm 2 mps 727 mmHg 12%
    17:00 +39°C° 0 mm 1 mps 727 mmHg 13%
    18:00 +37°C° 0 mm 1 mps 727 mmHg 14%
    19:00 +36°C° 0 mm 1 mps 727 mmHg 15%
    20:00 +36°C° 0 mm 1 mps 727 mmHg 15%
    21:00 +35°C° 0 mm 1 mps 728 mmHg 15%
    22:00 +34°C° 0 mm 1 mps 728 mmHg 16%
    23:00 +35°C° 0 mm 2 mps 728 mmHg 16%

    Tomorrow, 25 October, Thursday

    Time Temperature Precipitation Wind Pressure Humidity
    00:00 +34°C° 0 mm 2 mps 728 mmHg 16%
    01:00 +34°C° 0 mm 2 mps 727 mmHg 18%
    02:00 +32°C° 0 mm 2 mps 727 mmHg 19%
    03:00 +33°C° 0 mm 3 mps 726 mmHg 20%
    04:00 +31°C° 0 mm 3 mps 726 mmHg 22%
    05:00 +31°C° 0 mm 3 mps 727 mmHg 23%
    06:00 +30°C° 0 mm 3 mps 727 mmHg 25%
    07:00 +33°C° 0 mm 3 mps 727 mmHg 24%
    08:00 +35°C° 0 mm 3 mps 728 mmHg 23%
    09:00 +37°C° 0 mm 3 mps 729 mmHg 22%
    10:00 +38°C° 0 mm 3 mps 728 mmHg 20%
    11:00 +39°C° 0 mm 3 mps 728 mmHg 18%
    12:00 +42°C° 0 mm 3 mps 728 mmHg 16%
    13:00 +42°C° 0 mm 3 mps 727 mmHg 15%
    14:00 +42°C° 0 mm 2 mps 727 mmHg 14%
    15:00 +42°C° 0 mm 2 mps 726 mmHg 13%
    16:00 +41°C° 0 mm 2 mps 726 mmHg 15%
    17:00 +39°C° 0 mm 2 mps 726 mmHg 16%
    18:00 +38°C° 0 mm 2 mps 726 mmHg 18%
    19:00 +37°C° 0 mm 2 mps 727 mmHg 19%
    20:00 +37°C° 0 mm 2 mps 727 mmHg 20%
    21:00 +36°C° 0 mm 3 mps 728 mmHg 22%
    22:00 +36°C° 0 mm 3 mps 728 mmHg 23%
    23:00 +35°C° 0 mm 3 mps 728 mmHg 24%

    Day after tomorrow, 26 October, Friday

    Time Temperature Precipitation Wind Pressure Humidity
    00:00 +35°C° 0 mm 3 mps 727 mmHg 26%
    01:00 +34°C° 0 mm 3 mps 727 mmHg 26%
    02:00 +34°C° 0 mm 3 mps 727 mmHg 27%
    03:00 +33°C° 0 mm 3 mps 726 mmHg 28%
    04:00 +33°C° 0 mm 3 mps 726 mmHg 29%
    05:00 +31°C° 0 mm 3 mps 727 mmHg 30%
    06:00 +30°C° 0 mm 3 mps 727 mmHg 32%
    07:00 +33°C° 0 mm 4 mps 728 mmHg 30%
    08:00 +35°C° 0 mm 4 mps 728 mmHg 28%
    09:00 +37°C° 0 mm 5 mps 729 mmHg 27%
    10:00 +40°C° 0 mm 5 mps 729 mmHg 24%
    11:00 +41°C° 0 mm 4 mps 728 mmHg 21%
    12:00 +42°C° 0 mm 4 mps 728 mmHg 18%
    13:00 +43°C° 0 mm 3 mps 727 mmHg 17%
    14:00 +43°C° 0 mm 3 mps 726 mmHg 16%
    15:00 +42°C° 0 mm 2 mps 726 mmHg 15%
    16:00 +40°C° 0 mm 2 mps 726 mmHg 17%
    17:00 +39°C° 0 mm 1 mps 726 mmHg 18%
    18:00 +37°C° 0 mm 1 mps 726 mmHg 20%
    19:00 +36°C° 0 mm 1 mps 727 mmHg 21%
    20:00 +35°C° 0 mm 1 mps 727 mmHg 21%
    21:00 +35°C° 0 mm 1 mps 728 mmHg 22%
    22:00 +34°C° 0 mm 1 mps 728 mmHg 24%
    23:00 +35°C° 0 mm 2 mps 727 mmHg 25%

    27 October, Saturday

    Time Temperature Precipitation Wind Pressure Humidity
    00:00 +34°C° 0 mm 2 mps 727 mmHg 27%
    01:00 +34°C° 0 mm 2 mps 727 mmHg 29%
    02:00 +32°C° 0 mm 2 mps 727 mmHg 32%
    03:00 +31°C° 0 mm 2 mps 727 mmHg 35%
    04:00 +31°C° 0.1 mm 2 mps 727 mmHg 38%
    05:00 +30°C° 0.1 mm 3 mps 728 mmHg 41%
    06:00 +30°C° 0.1 mm 3 mps 728 mmHg 44%
    07:00 +32°C° 0.3 mm 4 mps 729 mmHg 46%
    08:00 +33°C° 0.3 mm 6 mps 730 mmHg 47%
    09:00 +34°C° 0.3 mm 7 mps 730 mmHg 49%
    10:00 +36°C° 0 mm 7 mps 730 mmHg 43%
    11:00 +39°C° 0 mm 6 mps 729 mmHg 38%
    12:00 +40°C° 0 mm 6 mps 729 mmHg 33%
    13:00 +41°C° 0 mm 5 mps 728 mmHg 31%
    14:00 +41°C° 0 mm 4 mps 727 mmHg 28%
    15:00 +41°C° 0 mm 4 mps 727 mmHg 26%
    16:00 +40°C° 0 mm 3 mps 727 mmHg 27%
    17:00 +39°C° 0 mm 2 mps 727 mmHg 28%
    18:00 +38°C° 0 mm 2 mps 727 mmHg 29%
    19:00 +38°C° 0 mm 2 mps 728 mmHg 30%
    20:00 +37°C° 0 mm 2 mps 728 mmHg 31%
    21:00 +36°C° 0 mm 2 mps 729 mmHg 33%
    22:00 +36°C° 0 mm 3 mps 729 mmHg 34%
    23:00 +35°C° 0 mm 3 mps 729 mmHg 36%

    28 October, Sunday

    Time Temperature Precipitation Wind Pressure Humidity
    00:00 +35°C° 0 mm 3 mps 728 mmHg 37%
    01:00 +34°C° 0 mm 4 mps 728 mmHg 40%
    02:00 +33°C° 0 mm 4 mps 728 mmHg 43%
    03:00 +33°C° 0 mm 4 mps 727 mmHg 46%
    04:00 +32°C° 0 mm 4 mps 728 mmHg 48%
    05:00 +31°C° 0 mm 3 mps 728 mmHg 51%
    06:00 +30°C° 0 mm 3 mps 729 mmHg 53%
    07:00 +33°C° 0 mm 4 mps 729 mmHg 50%
    08:00 +34°C° 0 mm 4 mps 730 mmHg 46%
    09:00 +36°C° 0 mm 4 mps 730 mmHg 43%
    10:00 +37°C° 0 mm 4 mps 730 mmHg 40%
    11:00 +38°C° 0 mm 3 mps 729 mmHg 36%
    12:00 +39°C° 0 mm 2 mps 729 mmHg 32%
    13:00 +39°C° 0 mm 2 mps 728 mmHg 31%
    14:00 +39°C° 0 mm 2 mps 728 mmHg 31%
    15:00 +39°C° 0 mm 2 mps 727 mmHg 30%
    16:00 +39°C° 0 mm 2 mps 727 mmHg 31%
    17:00 +37°C° 0 mm 1 mps 727 mmHg 32%
    18:00 +37°C° 0 mm 1 mps 728 mmHg 33%
    19:00 +36°C° 0.1 mm 1 mps 728 mmHg 34%
    20:00 +36°C° 0.1 mm 2 mps 729 mmHg 36%
    21:00 +36°C° 0.1 mm 2 mps 729 mmHg 37%
    22:00 +35°C° 0 mm 2 mps 729 mmHg 38%
    23:00 +35°C° 0 mm 2 mps 728 mmHg 39%

    29 October, Monday

    Time Temperature Precipitation Wind Pressure Humidity
    00:00 +34°C° 0 mm 2 mps 728 mmHg 40%
    01:00 +34°C° 0.2 mm 3 mps 728 mmHg 42%
    02:00 +33°C° 0.2 mm 3 mps 728 mmHg 44%
    03:00 +31°C° 0.2 mm 3 mps 728 mmHg 46%
    04:00 +31°C° 0.1 mm 3 mps 728 mmHg 49%
    05:00 +31°C° 0.1 mm 3 mps 728 mmHg 52%
    06:00 +30°C° 0.1 mm 3 mps 729 mmHg 55%
    07:00 +33°C° 0 mm 3 mps 729 mmHg 50%
    08:00 +34°C° 0 mm 4 mps 730 mmHg 45%
    09:00 +36°C° 0 mm 4 mps 730 mmHg 40%
    10:00 +37°C° 0 mm 4 mps 729 mmHg 37%
    11:00 +38°C° 0 mm 3 mps 729 mmHg 33%
    12:00 +40°C° 0 mm 3 mps 728 mmHg 30%
    13:00 +40°C° 0 mm 2 mps 728 mmHg 28%
    14:00 +41°C° 0 mm 1 mps 727 mmHg 26%
    15:00 +41°C° 0 mm 1 mps 726 mmHg 24%
    16:00 +40°C° 0 mm 1 mps 727 mmHg 24%
    17:00 +40°C° 0 mm 1 mps 727 mmHg 25%
    18:00 +39°C° 0 mm 1 mps 727 mmHg 26%
    19:00 +39°C° 0 mm 1 mps 728 mmHg 27%
    20:00 +39°C° 0 mm 1 mps 728 mmHg 27%
    21:00 +39°C° 0 mm 2 mps 729 mmHg 28%
    22:00 +38°C° 0.3 mm 2 mps 728 mmHg 31%
    23:00 +37°C° 0.3 mm 3 mps 728 mmHg 33%

    30 October, Tuesday

    Time Temperature Precipitation Wind Pressure Humidity
    00:00 +36°C° 0.3 mm 3 mps 728 mmHg 36%
    01:00 +35°C° 0.3 mm 4 mps 728 mmHg 40%
    02:00 +34°C° 0.3 mm 5 mps 727 mmHg 44%
    03:00 +33°C° 0.3 mm 6 mps 727 mmHg 47%
    04:00 +33°C° 0.3 mm 5 mps 727 mmHg 48%
    05:00 +33°C° 0.3 mm 4 mps 728 mmHg 48%
    06:00 +31°C° 0.3 mm 3 mps 728 mmHg 49%
    07:00 +34°C° 0 mm 3 mps 728 mmHg 45%
    08:00 +35°C° 0 mm 3 mps 729 mmHg 41%
    09:00 +36°C° 0 mm 3 mps 729 mmHg 37%
    10:00 +37°C° 0 mm 2 mps 729 mmHg 35%
    11:00 +38°C° 0 mm 2 mps 728 mmHg 32%
    12:00 +39°C° 0 mm 2 mps 728 mmHg 29%
    13:00 +40°C° 0 mm 2 mps 727 mmHg 28%
    14:00 +40°C° 0 mm 1 mps 726 mmHg 27%
    15:00 +40°C° 0 mm 1 mps 726 mmHg 25%
    16:00 +40°C° 0 mm 2 mps 726 mmHg 26%
    17:00 +39°C° 0 mm 2 mps 726 mmHg 27%
    18:00 +39°C° 0 mm 2 mps 726 mmHg 28%
    19:00 +38°C° 0 mm 2 mps 726 mmHg 29%
    20:00 +38°C° 0 mm 2 mps 727 mmHg 30%
    21:00 +37°C° 0 mm 2 mps 727 mmHg 31%
    22:00 +37°C° 0 mm 2 mps 727 mmHg 32%
    23:00 +36°C° 0 mm 2 mps 727 mmHg 32%
    Show more